Погода в Урдомах

Россия / Ярославская область     57°56′32″N   39°35′06″E
темп.,
°C
ветер,
м/с
пор.,
м/с
влажн.,
%
обл.,
%
осадки,
мм/ч
давл.,
гПа
погр.,
м
25 октября, пн
пн2500:00−1ссз410855 0.0 1022477
03:00−2сз39875 0.0 1024321
06:00−2зсз25895 0.0 1025158
09:00−1з3681100 0.0 1026412
12:00+1зюз4657100 0.0 1026725
15:00+1юз5965100 0.0 1024742
18:000юз61493100 0.3 1022738
21:00+2зюз6158167 0.8 1020662
26 октября, вт
вт2600:00+2зюз61383100 0.0 1019702
03:00+2зюз51386100 0.0 1018553
06:00+1зюз51289100 0.0 1018472
09:00+1зюз5128890 0.0 1017425
12:00+3зюз597799 0.0 1017516
15:00+4зюз51078100 0.0 1016564
18:00+2юз41283100 0.0 1015425
21:00+2юз41187100 0.0 1015355
27 октября, ср
ср2700:00+1юз41090100 0.0 1014294
03:00+1юз41089100 0.0 1013340
06:00+1юз41088100 0.0 1012337
09:00+1юз41186100 0.0 1010446
12:00+4юз51279100 0.0 1008598
15:00+3зюз51292100 0.8 1007780
18:00+5зюз61494100 1.6 1007970
21:00+6з61287100 1.8 1007916
28 октября, чт
чт2800:00+6з5118791 0.5 1008837
03:00+6з41088100 0.8 1008759
06:00+5з4990100 0.4 1009609
09:00+4з3794100 0.4 1010347
12:00+6зсз2484100 0.0 1012448
15:00+6сз2487100 0.3 1013610
18:00+3ссв5980100 0.1 1017604
21:00−1св510775 0.1 1021557
29 октября, пт
пт2900:00−2ссв39769 0.0 1025515
03:00−2св3871100 0.0 1027444
06:00−2св2570100 0.0 1029302
09:00−2вюв2464100 0.0 1030270
12:000ююв344799 0.0 1031537
15:00+1ююв3648100 0.0 1030550
18:000ю4954100 0.1 1029431
21:00−2ю51196100 1.8 1028420